[[{"header":{"parameterUnit":"m.s-1","parameterCategory":1,"la1":30.2991,"la2":30.254,"lo1":-89.0895,"lo2":-89.0444,"dy":0.0017,"dx":0.0017,"nx":28,"ny":28,"refTime":"2023-08-15T09:00:00:Z","depth":0,"parameterNumber":2,"parameterNumberName":"U-component_of_WINDS"},"data":[0,0,0,0,0,0,0,0,0,0,0,0,0,0,0,0,0,0,0,0,0,0,0,0,0,0,0,0,0,0,0,0,0,0,0,0,0,0,0,0,0,0,0,0,0,0,0,0,0,0,0,0,0,0,0,0,0,0,-0.0327,-0.0327,0,-0.0367,-0.0367,-0.0368,-0.0412,-0.0413,-0.0413,-0.0414,-0.0454,-0.0455,-0.0455,0,0,0,0,0,0,0,0,0,0,0,0,0,-0.029,-0.0291,-0.0327,-0.0327,-0.0328,-0.0367,-0.0367,-0.0368,-0.0412,-0.0413,-0.0414,-0.0414,-0.0454,-0.0455,-0.0455,0,0,0,0,0,0,0,0,0,0,0,0,0,-0.0316,-0.0291,-0.0327,-0.0355,-0.0358,-0.0366,-0.0367,-0.0368,-0.0412,-0.0413,-0.0414,-0.0415,-0.0454,-0.0455,-0.0455,-0.044,0,0,-0.0457,-0.0458,0,0,0,0,0,0,0,0,-0.0314,-0.0317,-0.035,-0.0353,-0.0356,-0.0385,-0.0369,-0.0392,-0.0412,-0.0391,-0.0414,-0.0415,-0.0431,-0.0433,-0.0439,-0.0442,-0.0444,-0.0458,-0.0458,-0.0458,-0.0458,0,0,0,0,0,0,0,-0.0312,-0.0315,-0.0343,-0.035,-0.0354,-0.0366,-0.037,-0.0374,-0.0405,-0.0393,-0.0396,-0.0401,-0.0432,-0.0438,-0.044,-0.0444,-0.0457,-0.0458,-0.0459,-0.0459,-0.0439,-0.0438,0,0,0,0,0,0,-0.0306,-0.0314,-0.0341,-0.0344,-0.0337,-0.0365,-0.0371,-0.0375,-0.0405,-0.041,-0.04,-0.0402,-0.0436,-0.0439,-0.0441,-0.0427,-0.0458,-0.0459,-0.0459,-0.044,-0.0439,-0.0438,0,0,0,0,0,0,-0.0305,-0.0308,-0.034,-0.033,-0.0335,-0.0365,-0.0369,-0.0375,-0.0381,-0.041,-0.0416,-0.0399,-0.0437,-0.044,-0.0441,-0.0429,-0.0459,-0.046,-0.0441,-0.044,-0.0438,-0.0396,0,0,0,0,0,0,-0.0304,-0.0308,-0.0302,-0.0329,-0.0335,-0.0338,-0.0369,-0.0375,-0.0382,-0.0386,-0.0411,-0.0416,-0.0438,-0.0439,-0.0441,-0.043,-0.046,-0.0442,-0.044,-0.0439,-0.0399,-0.0394,-0.0389,0,0,0,0,0,-0.0303,-0.0288,-0.0301,-0.0304,-0.0328,-0.0337,-0.034,-0.0366,-0.0381,-0.0375,-0.0395,-0.0416,-0.043,-0.0439,-0.0441,-0.043,-0.0443,-0.0441,-0.0439,-0.0401,-0.0395,-0.0389,0,0,0,0,0,0,-0.0257,-0.0292,-0.0307,-0.0301,-0.0316,-0.0344,-0.0338,-0.0358,-0.0368,-0.0372,-0.0403,-0.0408,-0.0405,-0.0418,-0.0427,-0.0418,-0.044,-0.0438,-0.041,-0.0404,-0.0399,-0.0396,-0.0461,0,0,0,0,0,-0.0247,-0.0251,-0.0281,-0.0272,-0.0279,-0.0307,-0.0312,-0.033,-0.0347,-0.0354,-0.0373,-0.0388,-0.0396,-0.0401,-0.041,-0.0401,-0.0408,-0.0395,-0.039,-0.0386,-0.0384,-0.0382,-0.0377,-0.0431,-0.0431,-0.0431,0,0,-0.0225,-0.0244,-0.0244,-0.0264,-0.0277,-0.0282,-0.0312,-0.0315,-0.0318,-0.0354,-0.0356,-0.037,-0.039,-0.0386,-0.0385,-0.0396,-0.0371,-0.0383,-0.038,-0.038,-0.038,-0.0375,-0.037,-0.043,-0.043,-0.043,0,0,-0.0187,-0.0201,-0.0197,-0.021,-0.0231,-0.025,-0.0249,-0.0275,-0.0287,-0.0289,-0.0316,-0.0321,-0.0334,-0.0347,-0.0356,-0.0325,-0.0345,-0.0327,-0.0302,-0.0299,-0.0295,-0.0292,-0.0282,-0.0278,-0.0325,-0.0325,-0.0325,0,-0.0157,-0.0164,-0.0192,-0.0193,-0.0201,-0.0235,-0.0231,-0.0242,-0.0265,-0.027,-0.0283,-0.0301,-0.0316,-0.0317,-0.031,-0.0315,-0.0315,-0.0324,-0.0294,-0.029,-0.0287,-0.0279,-0.0275,-0.0323,-0.0323,-0.0323,-0.0324,0,-0.0126,-0.0131,-0.0125,-0.0147,-0.0154,-0.0153,-0.0181,-0.0186,-0.0204,-0.0222,-0.0225,-0.0245,-0.0259,-0.026,-0.0278,-0.0264,-0.0271,-0.0288,-0.031,-0.028,-0.0272,-0.0269,-0.032,-0.032,-0.0321,-0.0322,0,0,-0.006,-0.0099,-0.0096,-0.0107,-0.0133,-0.0138,-0.0139,-0.0153,-0.0157,-0.0172,-0.0174,-0.0185,-0.0202,-0.0212,-0.0231,-0.0229,-0.0205,-0.0247,-0.0248,-0.0239,-0.0193,-0.018,-0.0176,-0.0219,-0.0218,-0.0218,-0.0192,0,-0.0028,-0.0031,-0.0057,-0.0054,-0.0059,-0.0091,-0.0093,-0.0109,-0.0126,-0.0134,-0.0153,-0.0161,-0.0182,-0.0188,-0.0188,-0.0208,-0.0196,-0.021,-0.0222,-0.0222,-0.0217,-0.0171,-0.0157,-0.0132,-0.0189,-0.0188,-0.0188,0,0.001,-0.0003,-0.0,-0.0028,-0.0032,-0.0032,-0.0048,-0.0055,-0.0075,-0.0088,-0.0099,-0.0122,-0.0126,-0.0146,-0.0152,-0.0161,-0.0168,-0.0179,-0.0178,-0.0181,-0.0203,-0.0173,-0.0124,-0.012,-0.0183,-0.0183,-0.0184,0,0.0056,0.0039,0.0038,0.003,-0.0002,-0.0002,-0.0015,-0.0036,-0.0044,-0.0059,-0.0064,-0.0079,-0.0087,-0.0098,-0.0124,-0.0136,-0.0128,-0.015,-0.0139,-0.0139,-0.0136,-0.0136,-0.0088,-0.0139,-0.0139,-0.0139,-0.0139,0,0.0095,0.0098,0.0058,0.0058,0.006,0.0029,0.0032,0.0015,-0.0004,-0.0009,-0.0037,-0.0041,-0.0075,-0.0084,-0.0104,-0.0107,-0.011,-0.0121,-0.0127,-0.0119,-0.0118,-0.0124,-0.0127,-0.0138,-0.0138,-0.0139,-0.0139,0,0.0147,0.0121,0.0118,0.0087,0.0079,0.0082,0.0055,0.0053,0.0033,0.0027,0.0024,-0.0007,-0.0018,-0.0045,-0.0064,-0.0078,-0.0076,-0.0085,-0.0069,-0.0073,-0.0061,-0.0062,-0.0015,-0.0011,-0.0064,-0.0063,-0.0063,0,0.0173,0.0175,0.0144,0.0138,0.0126,0.0117,0.0109,0.0079,0.0071,0.0047,0.0048,0.0034,0.0021,0.0004,-0.002,-0.0035,-0.0046,-0.0028,-0.0048,-0.0041,-0.0047,-0.0047,-0.0047,-0.0024,-0.0023,-0.0023,-0.0022,0,0.0222,0.0209,0.0198,0.0182,0.0172,0.0158,0.0143,0.014,0.0106,0.0098,0.0086,0.0076,0.0056,0.0043,0.0024,0.0009,-0.0012,-0.0016,-0.0014,-0.0007,0.0002,-0.0004,-0.0058,-0.0017,-0.0017,-0.0018,-0.0018,-0.0018,0.0261,0.026,0.0238,0.0226,0.0211,0.0197,0.0192,0.0172,0.0161,0.0143,0.0125,0.0114,0.0093,0.0065,0.0052,0.0042,0.0031,0.0034,0.0034,0.0035,0.0038,0.0004,0.0039,0.0039,0.0038,0.0038,0.0038,0,0.0307,0.0291,0.0281,0.0259,0.025,0.023,0.0211,0.0204,0.0195,0.0176,0.0164,0.0149,0.0135,0.0109,0.0093,0.009,0.0079,0.0086,0.0086,0.0083,0.005,0.0049,0.0095,0.0095,0.0095,0.0095,0.0095,0.0095,0.033,0.0327,0.0311,0.0299,0.0282,0.0271,0.0262,0.0248,0.0233,0.0218,0.0206,0.0189,0.0167,0.0148,0.0134,0.0127,0.0122,0.0132,0.0121,0.0091,0.0085,0.008,0.008,0.0131,0.0131,0.0155,0.0155,0.0156]},{"header":{"parameterUnit":"m.s-1","parameterCategory":1,"la1":30.2991,"la2":30.254,"lo1":-89.0895,"lo2":-89.0444,"dy":0.0017,"dx":0.0017,"nx":28,"ny":28,"refTime":"2023-08-15T09:00:00:Z","depth":0,"parameterNumber":3,"parameterNumberName":"V-component_of_WINDS"},"data":[0,0,0,0,0,0,0,0,0,0,0,0,0,0,0,0,0,0,0,0,0,0,0,0,0,0,0,0,0,0,0,0,0,0,0,0,0,0,0,0,0,0,0,0,0,0,0,0,0,0,0,0,0,0,0,0,0,0,3.5672,3.5672,0,3.5589,3.5588,3.5588,3.5475,3.5473,3.5471,3.5469,3.5385,3.5384,3.5384,0,0,0,0,0,0,0,0,0,0,0,0,0,3.5734,3.5733,3.5673,3.5672,3.567,3.559,3.5588,3.5587,3.5475,3.5473,3.547,3.5468,3.5385,3.5384,3.5384,0,0,0,0,0,0,0,0,0,0,0,0,0,3.5685,3.5733,3.5673,3.5605,3.5598,3.559,3.5588,3.5587,3.5476,3.5473,3.547,3.5467,3.5385,3.5384,3.5384,3.5436,0,0,3.5381,3.5381,0,0,0,0,0,0,0,0,3.5688,3.5683,3.5616,3.5609,3.5602,3.5539,3.5579,3.5536,3.5476,3.5522,3.5469,3.5466,3.5439,3.5433,3.5424,3.5432,3.5428,3.5381,3.5381,3.5381,3.538,0,0,0,0,0,0,0,3.5691,3.5686,3.564,3.5615,3.5606,3.5578,3.5568,3.557,3.5497,3.5518,3.5509,3.5501,3.5434,3.5425,3.5421,3.5427,3.5381,3.5381,3.538,3.538,3.5472,3.5474,0,0,0,0,0,0,3.5705,3.5689,3.5642,3.5637,3.5639,3.558,3.5568,3.5562,3.5497,3.5484,3.5504,3.5496,3.5428,3.5422,3.5418,3.5473,3.5381,3.538,3.538,3.5469,3.5472,3.5475,0,0,0,0,0,0,3.5707,3.5702,3.5646,3.5661,3.5652,3.5581,3.5576,3.5562,3.5553,3.5486,3.5473,3.5508,3.5425,3.5419,3.5432,3.5468,3.538,3.5379,3.5465,3.547,3.5474,3.5585,0,0,0,0,0,0,3.5709,3.5703,3.5722,3.5662,3.5651,3.5661,3.5578,3.5563,3.5552,3.5541,3.5486,3.5474,3.5422,3.5433,3.5431,3.5466,3.5378,3.5462,3.5467,3.5472,3.5577,3.5592,3.5605,0,0,0,0,0,3.5711,3.5757,3.5724,3.5719,3.5674,3.5664,3.5657,3.5596,3.5555,3.5574,3.5531,3.5476,3.5465,3.5436,3.5432,3.5467,3.5459,3.5466,3.5472,3.5571,3.5589,3.5605,0,0,0,0,0,0,3.5824,3.5748,3.571,3.5738,3.5708,3.5645,3.5666,3.5618,3.5599,3.559,3.5516,3.5504,3.5526,3.5498,3.5467,3.5513,3.5454,3.546,3.5531,3.5547,3.5561,3.5566,3.5378,0,0,0,0,0,3.5852,3.585,3.5784,3.5815,3.5802,3.5737,3.573,3.5686,3.5652,3.5639,3.5597,3.5566,3.5555,3.555,3.5537,3.5573,3.5559,3.5596,3.5609,3.5621,3.5627,3.5642,3.5657,3.5497,3.5497,3.5496,0,0,3.591,3.5868,3.5872,3.5836,3.5808,3.5807,3.5727,3.573,3.5729,3.5639,3.5648,3.5617,3.5577,3.5602,3.5611,3.5579,3.5668,3.5629,3.5639,3.5638,3.565,3.5666,3.5679,3.5501,3.55,3.55,0,0,3.6014,3.5983,3.6005,3.5978,3.5936,3.5892,3.5898,3.5841,3.5817,3.5825,3.5757,3.5755,3.5738,3.5712,3.5697,3.5792,3.574,3.579,3.5861,3.5877,3.589,3.5901,3.5933,3.5945,3.5796,3.5796,3.5796,0,3.6091,3.6087,3.6022,3.6029,3.6015,3.5934,3.5954,3.5932,3.5888,3.588,3.5845,3.5822,3.579,3.5807,3.583,3.5821,3.5824,3.5795,3.5893,3.5903,3.5913,3.5942,3.5955,3.5802,3.5802,3.5801,3.58,0,3.6184,3.6182,3.6205,3.6163,3.6152,3.6166,3.6102,3.6099,3.6056,3.6016,3.6025,3.5983,3.5959,3.596,3.5919,3.5971,3.5952,3.5907,3.5845,3.5935,3.5962,3.5973,3.5811,3.5809,3.5807,3.5805,0,0,3.6356,3.6278,3.6287,3.6267,3.6214,3.6212,3.6222,3.6198,3.6196,3.6169,3.6174,3.6162,3.6119,3.6102,3.6057,3.6071,3.6147,3.6023,3.6021,3.6046,3.62,3.6233,3.6248,3.6113,3.6115,3.6116,3.6202,0,3.6449,3.6461,3.6402,3.643,3.6427,3.635,3.6359,3.6327,3.6291,3.6283,3.6242,3.6234,3.6179,3.6167,3.6178,3.6135,3.6176,3.6129,3.6116,3.6117,3.6127,3.6262,3.6297,3.638,3.6213,3.6214,3.6216,0,3.6559,3.6537,3.6564,3.6509,3.6506,3.6515,3.6487,3.6481,3.6444,3.6416,3.6397,3.6344,3.6349,3.6292,3.6298,3.6267,3.6259,3.6237,3.6238,3.6234,3.6171,3.6259,3.6406,3.6418,3.6232,3.623,3.6229,0,3.6679,3.6657,3.6669,3.6655,3.6592,3.6599,3.6573,3.6533,3.6522,3.6499,3.6491,3.6469,3.6457,3.6441,3.6383,3.6347,3.6395,3.6333,3.6371,3.6373,3.6383,3.6383,3.6529,3.6381,3.6381,3.6381,3.6381,0,3.6788,3.6808,3.6723,3.6731,3.675,3.6682,3.6703,3.6669,3.6634,3.6634,3.6567,3.6568,3.6492,3.6485,3.644,3.6451,3.6446,3.6423,3.6411,3.6428,3.6431,3.6421,3.6413,3.6384,3.6384,3.6383,3.6382,0,3.6926,3.687,3.6878,3.6818,3.6803,3.682,3.6767,3.6772,3.6731,3.6731,3.6727,3.6663,3.6651,3.6592,3.6566,3.6536,3.6561,3.6538,3.6574,3.6565,3.6606,3.6602,3.6749,3.6764,3.6609,3.661,3.6612,0,3.6998,3.7011,3.6952,3.6947,3.6923,3.6916,3.6905,3.6839,3.6829,3.6787,3.6797,3.6779,3.6761,3.6745,3.6695,3.6675,3.6649,3.6702,3.6646,3.6663,3.6648,3.6647,3.6648,3.6714,3.6716,3.6718,3.6719,0,3.7132,3.7104,3.7089,3.7066,3.7054,3.7032,3.7006,3.7006,3.6932,3.6925,3.6911,3.6898,3.6871,3.6853,3.6824,3.6797,3.6746,3.6737,3.6745,3.6762,3.6781,3.677,3.6605,3.6734,3.6732,3.6731,3.6731,3.673,3.7238,3.7245,3.7204,3.719,3.7164,3.7141,3.7142,3.7101,3.7088,3.7061,3.7023,3.7014,3.6976,3.6931,3.6908,3.69,3.6871,3.6882,3.6884,3.6888,3.6896,3.6784,3.6895,3.6894,3.6894,3.6893,3.6893,0,3.7366,3.7336,3.7325,3.729,3.7279,3.7232,3.7201,3.7195,3.7188,3.7156,3.714,3.7124,3.7106,3.7056,3.7033,3.7036,3.7012,3.7033,3.7031,3.7025,3.6924,3.6919,3.7052,3.7052,3.7052,3.7052,3.7052,3.7052,3.7432,3.7442,3.7408,3.7404,3.7373,3.7364,3.735,3.7328,3.7303,3.7288,3.7273,3.724,3.72,3.7174,3.7156,3.7141,3.7136,3.7164,3.7141,3.7048,3.7032,3.7018,3.7013,3.7163,3.7163,3.7242,3.7243,3.7244]}]]